OV1-5 DEB, 27880

Orbit data source: Space-Track

OV1-5 DEB, 27880 is space debris in LEO originally from a launch on Wed, 30 Mar 1966 UTC launched from the Air Force Western Test Range (AFWTR). Debris objects in space refer to the collection of defunct objects orbiting the Earth. Examples of debris include non-operational satellites, rocket bodies, and fragments generated from explosions, collisions, or faulty payload assembly.

Loading next visibility...
OV1-5 DEB details
Identifier
27880, 1966-025H
Orbit
LEO
Last TLE update15 hours ago
Origin
Flag of USUSAF SMC (US)
ManufacturerUnknown
MissionSpacecraft
Bus & MotorUnknown
MassUnknown
Launch date (UTC)
1966-03-30 (59 years ago)
Launch vehicleUnknown
Launch site
Air Force Western Test Range (AFWTR)
Object type
Payload
Rocket body
Debris
Shape & HBRUnknown
Radar Cross SectionSmall (<0.1 m²)

Expand to show TLE details & history

TLE from 15 hours ago
0 OV1-5 DEB
1 27880U 66025H   24355.90733859  .00081029  00000-0  76581-2 0  9996
2 27880 144.6077  28.4322 0009626  51.7797 308.3781 14.92045732562860
Epoch: 2024-12-20T21:46Z
Definitive object data (Epoch: 2024-12-20T21:46:34.054Z)
Latitude-0.00003°
Longitude-28.17577°
Altitude586.36 km
Speed7.572 km/s
True Right ascension01h 53m 43s
True Declination0° 00' 00"
Sunlit
Object was in full shadow at TLE epoch
Visualization TLE readout
Latitude15.61769°
Longitude-47.58895°
Altitude583.698 km
Speed7.575 km/s
Apparent Right ascension00h 05m 14s
Apparent Declination-10° 54' 11"
Sunlit
Object is in daylight
Visualization observer readout
Local Sidereal Time11:22:55
Azimuth339.186° N
Elevation-59.508°
Doppler factor1
Orbital elements
Apogee altitude601.415 km
Perigee altitude587.99 km
Semi-major axis6,972.84 km
Eccentricity0.0009626
Inclination144.6077°
RAAN28.4322°
Arg. of periapsis51.7797°
True anomaly308.29156°
Mean anomaly308.3781°
Eccentric anomaly308.33484°
Mean motion3.72759 °/min
BSTAR0.0076581
Orbital period96.58 mins
Loading maneuver chart data...
Loading historical data...
Loading historical data...
Loading historical data...
Loading historical data...
Loading historical data...
Loading historical data...
Loading historical data...

OV1-5 DEB Visibility forecast

Observer location: undefined°, undefined

Span
Click to sort rows by Start time (UTC) header in descending order
Start Az.
Max El. time (UTC)
Max El. Az.
Max El.
End time (UTC)
End Az.
5 mins2024-12-21 19:07:08.074Z114.161° SE2024-12-21 19:09:08.074Z154.326° SSE24.825°2024-12-21 19:12:08.074Z216.794° SW
5 mins2024-12-21 20:39:08.074Z114.929° SE2024-12-21 20:41:08.074Z171.584° S34.953°2024-12-21 20:44:08.074Z243.982° WSW
5 mins2024-12-21 22:11:08.074Z134.551° SE2024-12-21 22:13:08.074Z197.307° SSW32.945°2024-12-21 22:16:08.074Z256.205° W
4 mins2024-12-21 23:43:08.074Z166.685° S2024-12-21 23:45:08.074Z209.529° SW20.543°2024-12-21 23:47:08.074Z244.967° WSW
|